GW5341 Weather Reports


time (UTC)temp
C
wind
direction
speed
KPH
gust
KPH
rain 1hr
cm
rain 24hr
cm
rain mn
cm
humidity
%
barometer
mb
20260906225008 25 134 9.7 17.7 0.00 0.00 0.00 33 1023.0
20260906224520 25 113 9.7 24.1 0.00 0.00 0.00 34 1023.0
20260906224009 25 155 16.1 29.0 0.00 0.00 0.00 32 1023.0
20260906223503 26 133 19.3 30.6 0.00 0.00 0.00 32 1023.0
20260906223003 27 133 17.7 30.6 0.00 0.00 0.00 30 1023.1
20260906222503 27 108 8.0 24.1 0.00 0.03 0.00 23 1023.0
20260906222003 27 278 6.4 12.9 0.00 0.03 0.00 25 1023.0
20260906221506 26 265 4.8 12.9 0.00 0.03 0.00 25 1023.0
20260906221004 27 306 8.0 12.9 0.00 0.03 0.00 23 1023.0
20260906220506 26 295 1.6 9.7 0.00 0.03 0.00 24 1023.1
20260906220030 26 288 3.2 9.7 0.00 0.03 0.00 25 1023.2
20260906215504 25 283 6.4 9.7 0.00 0.03 0.00 25 1023.4
20260906215004 26 233 4.8 22.5 0.00 0.03 0.00 25 1023.4
20260906214519 25 269 8.0 22.5 0.00 0.03 0.00 25 1023.3
20260906214009 26 300 9.7 19.3 0.00 0.03 0.00 24 1023.3
20260906213510 26 311 14.5 19.3 0.00 0.03 0.00 25 1023.3
20260906213023 26 292 8.0 24.1 0.00 0.05 0.00 24 1023.5
20260906212511 27 295 11.3 24.1 0.00 0.05 0.00 23 1023.5
20260906212004 27 266 6.4 20.9 0.00 0.05 0.00 24 1023.6
20260906211505 27 230 11.3 32.2 0.00 0.05 0.00 24 1023.6
20260906211005 26 265 8.0 32.2 0.00 0.05 0.00 25 1023.6
20260906210503 26 286 12.9 20.9 0.00 0.05 0.00 24 1023.7
20260906210005 27 238 11.3 29.0 0.00 0.05 0.00 24 1023.8
20260906205504 26 287 6.4 32.2 0.00 0.05 0.00 24 1023.7
20260906205004 26 171 16.1 32.2 0.00 0.05 0.00 25 1023.5
20260906204511 26 82 4.8 20.9 0.00 0.05 0.00 24 1023.8
20260906204007 26 309 9.7 20.9 0.00 0.05 0.00 25 1023.9
20260906203507 26 316 12.9 20.9 0.00 0.05 0.00 25 1023.8
20260906203018 26 319 9.7 22.5 0.00 0.05 0.00 25 1023.9
20260906202507 26 302 8.0 25.7 0.00 0.05 0.00 25 1024.0
20260906202014 26 296 16.1 25.7 0.00 0.05 0.00 25 1023.9
20260906201523 26 288 11.3 25.7 0.00 0.05 0.00 25 1024.1
20260906201012 26 282 16.1 22.5 0.00 0.05 0.00 26 1024.1
20260906200512 26 320 11.3 20.9 0.00 0.05 0.00 26 1024.3
20260906200005 26 319 16.1 22.5 0.00 0.05 0.00 26 1024.2
20260906195504 26 309 16.1 22.5 0.00 0.05 0.00 25 1024.3
20260906195005 26 349 8.0 17.7 0.00 0.05 0.00 26 1024.5
20260906194515 26 344 9.7 20.9 0.00 0.05 0.00 25 1024.6
20260906194009 25 1 6.4 20.9 0.00 0.05 0.00 25 1024.7
20260906193506 25 1 11.3 20.9 0.00 0.05 0.00 25 1024.7
20260906193016 25 299 4.8 22.5 0.00 0.05 0.00 26 1024.8
20260906192507 25 319 12.9 22.5 0.00 0.05 0.00 25 1025.0
20260906192011 25 288 12.9 17.7 0.00 0.05 0.00 26 1025.0
20260906191519 25 303 11.3 17.7 0.00 0.05 0.00 26 1025.0
20260906191008 25 359 3.2 9.7 0.00 0.05 0.00 27 1025.1
20260906190512 25 49 4.8 11.3 0.00 0.05 0.00 27 1025.1
20260906190030 25 16 3.2 14.5 0.00 0.05 0.00 29 1025.2
20260906185518 25 312 1.6 14.5 0.00 0.05 0.00 29 1025.2
20260906185016 24 30 4.8 14.5 0.00 0.05 0.00 30 1025.3
20260906184537 24 282 3.2 12.9 0.00 0.05 0.00 30 1025.6
20260906184004 24 20 6.4 14.5 0.00 0.05 0.00 30 1025.7
20260906183503 23 283 3.2 14.5 0.00 0.05 0.00 32 1025.8
20260906183014 23 305 9.7 12.9 0.00 0.05 0.00 32 1025.9
20260906182507 23 319 4.8 12.9 0.00 0.05 0.00 33 1026.0
20260906182009 23 259 1.6 12.9 0.00 0.05 0.00 33 1026.1
20260906181540 23 231 1.6 9.7 0.00 0.05 0.00 35 1026.2
20260906181008 23 75 4.8 9.7 0.00 0.05 0.00 34 1026.4
20260906180510 22 326 0.0 11.3 0.00 0.05 0.00 36 1026.5
20260906180025 22 354 4.8 11.3 0.00 0.05 0.00 36 1026.7
20260906175510 22 4 3.2 9.7 0.00 0.05 0.00 36 1026.8
20260906175011 22 291 1.6 11.3 0.00 0.05 0.00 36 1027.0
20260906174525 22 17 4.8 11.3 0.00 0.05 0.00 35 1027.1
20260906174014 22 326 4.8 11.3 0.00 0.05 0.00 37 1027.2
20260906173515 21 303 1.6 11.3 0.00 0.05 0.00 38 1027.4
20260906173031 21 290 3.2 11.3 0.00 0.05 0.00 39 1027.4
20260906172503 20 273 1.6 9.7 0.00 0.05 0.00 40 1027.6
20260906172004 20 340 8.0 9.7 0.00 0.05 0.00 42 1027.7
20260906171512 20 329 3.2 9.7 0.00 0.05 0.00 44 1027.7
20260906171005 20 51 4.8 12.9 0.00 0.05 0.00 44 1027.8
20260906170506 20 8 8.0 12.9 0.00 0.05 0.00 45 1027.8
20260906170021 20 1 6.4 12.9 0.00 0.05 0.00 47 1027.8
20260906165508 20 354 3.2 11.3 0.00 0.05 0.00 46 1027.9
20260906165011 20 294 3.2 9.7 0.00 0.05 0.00 46 1027.9
20260906164526 19 54 3.2 9.7 0.00 0.05 0.00 47 1027.9
20260906164014 19 304 6.4 9.7 0.00 0.05 0.00 49 1028.0
20260906163511 19 325 3.2 9.7 0.00 0.05 0.00 48 1028.0
20260906163033 19 306 6.4 9.7 0.00 0.05 0.00 51 1028.0
20260906162516 18 300 3.2 9.7 0.00 0.05 0.00 52 1028.0
20260906162016 18 290 3.2 8.0 0.00 0.05 0.00 52 1028.1
20260906161533 18 347 3.2 6.4 0.00 0.05 0.00 53 1028.2
20260906161015 18 30 1.6 4.8 0.00 0.05 0.00 52 1028.3
20260906160506 17 75 0.0 6.4 0.00 0.05 0.00 52 1028.4
20260906160014 17 119 1.6 6.4 0.00 0.05 0.00 54 1028.5
20260906155509 17 135 3.2 4.8 0.00 0.05 0.00 56 1028.7
20260906155009 16 219 1.6 3.2 0.00 0.05 0.00 58 1028.6
20260906154520 16 269 0.0 3.2 0.00 0.05 0.00 59 1028.6
20260906154010 15 296 0.0 3.2 0.00 0.05 0.00 62 1028.7
20260906153512 15 302 0.0 3.2 0.00 0.05 0.00 61 1028.6
20260906153032 15 354 0.0 3.2 0.00 0.05 0.00 62 1028.6
20260906152514 15 167 0.0 0.0 0.00 0.05 0.00 64 1028.6
20260906152016 13 263 0.0 0.0 0.00 0.05 0.00 66 1028.5
20260906151532 13 278 0.0 1.6 0.00 0.05 0.00 68 1028.6
20260906151015 13 328 0.0 3.2 0.00 0.05 0.00 69 1028.6
20260906150516 13 328 1.6 3.2 0.00 0.05 0.00 68 1028.7
20260906150013 12 285 0.0 3.2 0.00 0.05 0.00 70 1028.8
20260906145505 12 309 1.6 3.2 0.00 0.05 0.00 69 1028.8
20260906145005 12 289 0.0 0.0 0.00 0.05 0.00 71 1028.9
20260906144519 12 330 0.0 0.0 0.00 0.05 0.00 71 1028.9
20260906144009 12 267 0.0 0.0 0.00 0.05 0.00 72 1028.8
20260906143508 11 99 0.0 0.0 0.00 0.05 0.00 73 1028.9
20260906143006 11 122 0.0 0.0 0.00 0.05 0.00 74 1029.0
20260906142502 11 155 0.0 0.0 0.00 0.05 0.00 74 1029.1
20260906142005 10 139 0.0 0.0 0.00 0.05 0.00 77 1029.1
20260906141505 10 96 0.0 0.0 0.00 0.05 0.00 79 1029.0
20260906141008 10 86 0.0 0.0 0.00 0.05 0.00 80 1029.0
20260906140504 9 102 0.0 0.0 0.00 0.05 0.00 83 1029.1
20260906140012 8 192 0.0 0.0 0.00 0.05 0.00 85 1029.1
20260906135502 7 191 0.0 0.0 0.00 0.05 0.00 84 1029.0
20260906135003 7 192 0.0 0.0 0.00 0.05 0.00 86 1028.9
20260906134511 7 191 0.0 0.0 0.00 0.05 0.00 88 1028.7
20260906134004 6 191 0.0 0.0 0.00 0.05 0.00 87 1028.7
20260906133507 6 187 0.0 0.0 0.00 0.05 0.00 87 1028.6
20260906133018 6 187 0.0 0.0 0.00 0.05 0.00 87 1028.6
20260906132508 6 186 0.0 0.0 0.00 0.05 0.00 87 1028.7
20260906132009 6 186 0.0 0.0 0.00 0.05 0.00 88 1028.7
20260906131505 6 186 0.0 0.0 0.00 0.05 0.00 87 1028.6
20260906131002 6 186 0.0 0.0 0.00 0.05 0.00 86 1028.5
20260906130503 6 207 0.0 0.0 0.00 0.05 0.00 86 1028.4
20260906130005 7 197 0.0 0.0 0.00 0.05 0.00 86 1028.4
20260906125503 7 197 0.0 0.0 0.00 0.05 0.00 86 1028.3
20260906125002 7 197 0.0 0.0 0.00 0.05 0.00 87 1028.2
20260906124510 7 197 0.0 0.0 0.00 0.05 0.00 86 1028.2
20260906124007 7 197 0.0 0.0 0.00 0.05 0.00 87 1028.1
20260906123506 6 197 0.0 0.0 0.00 0.05 0.00 86 1028.2
20260906123026 7 178 0.0 0.0 0.00 0.05 0.00 86 1028.1
20260906122507 7 165 0.0 0.0 0.00 0.05 0.00 87 1028.2
20260906122008 7 165 0.0 0.0 0.00 0.05 0.00 86 1028.2
20260906121529 7 165 0.0 0.0 0.00 0.05 0.00 85 1028.3
20260906121011 7 165 0.0 0.0 0.00 0.05 0.00 86 1028.1
20260906120511 7 165 0.0 0.0 0.00 0.05 0.00 86 1028.1
20260906120028 7 165 0.0 0.0 0.00 0.05 0.00 86 1028.1
20260906115503 7 165 0.0 0.0 0.00 0.05 0.00 86 1028.0
20260906115002 6 165 0.0 0.0 0.00 0.05 0.00 87 1028.0
20260906114520 6 165 0.0 0.0 0.00 0.05 0.00 86 1028.0
20260906114003 6 165 0.0 0.0 0.00 0.05 0.00 85 1028.2
20260906113505 7 165 0.0 0.0 0.00 0.05 0.00 86 1028.2
20260906113013 6 165 0.0 0.0 0.00 0.05 0.00 86 1028.2
20260906112503 6 165 0.0 0.0 0.00 0.05 0.00 86 1028.1
20260906112007 6 163 0.0 0.0 0.00 0.05 0.00 87 1028.2
20260906111523 6 160 0.0 0.0 0.00 0.05 0.00 85 1028.1
20260906111007 6 162 0.0 0.0 0.00 0.05 0.00 86 1028.1
20260906110511 6 153 0.0 0.0 0.00 0.05 0.00 84 1028.2
20260906110023 7 192 0.0 0.0 0.00 0.05 0.00 85 1028.2
20260906105510 7 224 0.0 0.0 0.00 0.05 0.00 84 1028.1
20260906105013 7 224 0.0 0.0 0.00 0.05 0.00 83 1028.0
20260906104528 7 143 0.0 0.0 0.00 0.05 0.00 83 1028.1
20260906104015 8 143 0.0 0.0 0.00 0.05 0.00 83 1028.1
20260906103503 8 144 0.0 0.0 0.00 0.05 0.00 81 1028.1
20260906103007 8 143 0.0 0.0 0.00 0.05 0.00 84 1028.0
20260906102505 7 144 0.0 0.0 0.00 0.05 0.00 86 1027.8
20260906102003 7 143 0.0 0.0 0.00 0.05 0.00 86 1027.9
20260906101515 6 143 0.0 0.0 0.00 0.05 0.00 86 1027.9
20260906101010 7 161 0.0 0.0 0.00 0.05 0.00 86 1027.8
20260906100509 7 179 0.0 0.0 0.00 0.05 0.00 85 1027.8
20260906100018 7 179 0.0 0.0 0.00 0.05 0.00 84 1027.7
20260906095513 7 179 0.0 0.0 0.00 0.05 0.00 82 1027.7
20260906095012 8 182 0.0 0.0 0.00 0.05 0.00 85 1027.7
20260906094525 8 182 0.0 0.0 0.00 0.05 0.00 83 1027.7
20260906094011 8 181 0.0 0.0 0.00 0.05 0.00 83 1027.7
20260906093514 8 172 0.0 0.0 0.00 0.05 0.00 84 1027.7
20260906093028 8 172 0.0 0.0 0.00 0.05 0.00 83 1027.7
20260906092515 8 157 0.0 0.0 0.00 0.05 0.00 82 1027.7
20260906092015 8 193 0.0 0.0 0.00 0.05 0.00 82 1027.7
20260906091515 8 179 0.0 0.0 0.00 0.05 0.00 81 1027.7
20260906091004 9 203 0.0 0.0 0.00 0.05 0.00 80 1027.7
20260906090506 9 198 0.0 0.0 0.00 0.05 0.00 81 1027.7
20260906090017 9 198 0.0 0.0 0.00 0.05 0.00 80 1027.7
20260906085508 9 199 0.0 0.0 0.00 0.05 0.00 80 1027.7
20260906085008 9 240 0.0 0.0 0.00 0.05 0.00 81 1027.7
20260906084529 9 141 0.0 0.0 0.00 0.05 0.00 81 1027.5
20260906084012 9 270 0.0 0.0 0.00 0.05 0.00 82 1027.7
20260906083511 8 270 0.0 0.0 0.00 0.05 0.00 81 1027.6
20260906083029 9 270 0.0 0.0 0.00 0.05 0.00 81 1027.6
20260906082511 9 270 0.0 0.0 0.00 0.05 0.00 79 1027.4
20260906082016 9 191 0.0 0.0 0.00 0.05 0.00 80 1027.4
20260906081538 9 191 0.0 0.0 0.00 0.05 0.00 79 1027.5
20260906081017 10 110 0.0 0.0 0.00 0.05 0.00 79 1027.3
20260906080515 10 110 0.0 0.0 0.00 0.05 0.00 79 1027.3
20260906080035 10 110 0.0 0.0 0.00 0.05 0.00 79 1027.6
20260906075506 9 110 0.0 0.0 0.00 0.05 0.00 81 1027.3
20260906075005 9 136 0.0 0.0 0.00 0.05 0.00 80 1027.3
20260906074516 10 131 0.0 0.0 0.00 0.05 0.00 79 1027.3
20260906074013 10 185 0.0 0.0 0.00 0.05 0.00 78 1027.4
20260906073512 10 140 0.0 0.0 0.00 0.05 0.00 76 1027.5
20260906073024 10 186 0.0 0.0 0.00 0.05 0.00 77 1027.5
20260906072513 10 173 0.0 0.0 0.00 0.05 0.00 79 1027.6
20260906072012 10 160 0.0 0.0 0.00 0.05 0.00 78 1027.4
20260906071532 10 155 0.0 0.0 0.00 0.05 0.00 79 1027.3
20260906071017 10 156 0.0 0.0 0.00 0.05 0.00 79 1027.4
20260906070514 10 121 0.0 0.0 0.00 0.05 0.00 78 1027.4
20260906070029 10 207 0.0 0.0 0.00 0.05 0.00 77 1027.4
20260906065516 10 207 0.0 0.0 0.00 0.05 0.00 77 1027.4
20260906065017 10 201 0.0 0.0 0.00 0.05 0.00 79 1027.5
20260906064531 10 148 0.0 6.4 0.00 0.05 0.00 76 1027.5
20260906064018 10 195 3.2 6.4 0.00 0.05 0.00 75 1027.5
20260906063507 11 167 3.2 6.4 0.00 0.05 0.00 72 1027.5
20260906063018 11 143 0.0 0.0 0.00 0.05 0.00 73 1027.5
20260906062507 11 143 0.0 1.6 0.00 0.05 0.00 72 1027.5
20260906062011 11 144 0.0 1.6 0.00 0.05 0.00 74 1027.6
20260906061523 10 144 1.6 3.2 0.00 0.05 0.00 74 1027.7
20260906061014 10 150 3.2 6.4 0.00 0.05 0.00 73 1027.7
20260906060513 11 215 4.8 6.4 0.00 0.05 0.00 72 1027.6
20260906060029 10 195 0.0 6.4 0.00 0.05 0.00 74 1027.6
20260906055513 10 150 4.8 6.4 0.00 0.05 0.05 72 1027.6
20260906055020 11 153 0.0 0.0 0.00 0.05 0.05 71 1027.6
20260906054530 11 155 0.0 0.0 0.00 0.05 0.05 70 1027.6
20260906054016 11 135 0.0 3.2 0.00 0.05 0.05 69 1027.5
20260906053521 11 197 0.0 4.8 0.00 0.05 0.05 70 1027.6
20260906053017 12 139 1.6 4.8 0.00 0.05 0.05 68 1027.6
20260906052506 12 139 0.0 8.0 0.00 0.05 0.05 66 1027.6
20260906052010 12 214 4.8 8.0 0.00 0.05 0.05 67 1027.7
20260906051521 12 333 3.2 11.3 0.00 0.05 0.05 66 1027.5
20260906051011 12 64 1.6 11.3 0.00 0.05 0.05 68 1027.6
20260906050511 13 142 0.0 0.0 0.00 0.05 0.05 65 1027.5
20260906050011 12 163 0.0 0.0 0.00 0.05 0.05 66 1027.5
20260906045505 12 182 0.0 1.6 0.00 0.05 0.05 66 1027.4
20260906045003 12 131 0.0 4.8 0.00 0.05 0.05 67 1027.5
20260906044507 12 128 0.0 6.4 0.00 0.05 0.05 67 1027.4
20260906044007 12 288 0.0 6.4 0.00 0.05 0.05 65 1027.5
20260906043502 13 281 3.2 6.4 0.00 0.05 0.05 64 1027.5
20260906043014 13 301 0.0 1.6 0.00 0.05 0.05 64 1027.4
20260906042505 13 350 0.0 0.0 0.00 0.05 0.05 63 1027.5
20260906042005 13 146 0.0 0.0 0.00 0.05 0.05 63 1027.6
20260906041525 13 290 0.0 11.3 0.00 0.05 0.05 63 1027.5
20260906041011 13 23 0.0 11.3 0.00 0.05 0.05 63 1027.6
20260906040509 13 292 3.2 9.7 0.00 0.05 0.05 62 1027.5
20260906040031 13 30 0.0 9.7 0.00 0.05 0.05 62 1027.7
20260906035510 15 288 3.2 6.4 0.00 0.05 0.05 58 1027.7
20260906035012 16 150 3.2 12.9 0.00 0.05 0.05 55 1027.7
20260906034504 15 120 4.8 16.1 0.00 0.05 0.05 56 1027.7
20260906034002 15 147 8.0 16.1 0.00 0.05 0.05 59 1027.5
20260906033502 15 111 8.0 11.3 0.00 0.05 0.05 61 1027.5
20260906033008 14 158 0.0 6.4 0.00 0.05 0.05 61 1027.5
20260906032505 15 223 0.0 16.1 0.00 0.05 0.05 58 1027.4
20260906032004 16 37 0.0 19.3 0.00 0.05 0.05 57 1027.4
20260906031526 16 110 14.5 20.9 0.00 0.05 0.05 57 1027.2
20260906031006 16 105 16.1 20.9 0.00 0.05 0.05 56 1027.0
20260906030507 16 103 16.1 19.3 0.00 0.05 0.05 56 1026.9
20260906030020 16 110 14.5 19.3 0.00 0.05 0.05 56 1026.9
20260906025512 16 90 14.5 19.3 0.00 0.05 0.05 57 1026.8
20260906025012 15 115 3.2 11.3 0.00 0.05 0.05 59 1026.8
20260906024532 16 71 0.0 1.6 0.00 0.05 0.05 57 1026.8
20260906024011 16 96 0.0 4.8 0.00 0.05 0.05 56 1026.8
20260906023514 16 108 0.0 6.4 0.00 0.05 0.05 55 1026.8
20260906023026 17 160 1.6 6.4 0.00 0.05 0.05 53 1026.7
20260906022505 17 137 0.0 3.2 0.00 0.05 0.05 51 1026.6
20260906022004 17 154 0.0 3.2 0.00 0.05 0.05 50 1026.5
20260906021509 17 195 1.6 3.2 0.00 0.05 0.05 49 1026.5
20260906021003 17 17 0.0 0.0 0.00 0.05 0.05 48 1026.4
20260906020506 18 278 0.0 12.9 0.00 0.05 0.05 48 1026.4
20260906020016 18 218 3.2 12.9 0.00 0.05 0.05 47 1026.3
20260906015507 18 82 6.4 12.9 0.00 0.05 0.05 47 1026.1
20260906015007 18 354 0.0 8.0 0.00 0.05 0.05 46 1026.1
20260906014525 18 47 4.8 9.7 0.00 0.05 0.05 46 1026.0
20260906014014 18 11 3.2 9.7 0.00 0.05 0.05 46 1026.0
20260906013512 19 326 8.0 20.9 0.00 0.05 0.05 45 1025.9
20260906013023 20 263 0.0 20.9 0.00 0.05 0.05 44 1025.7
20260906012513 20 194 4.8 19.3 0.00 0.05 0.05 44 1025.9
20260906012015 20 124 11.3 24.1 0.00 0.05 0.05 44 1025.9
20260906011531 20 205 4.8 30.6 0.00 0.05 0.05 43 1025.9
20260906011016 20 135 8.0 30.6 0.00 0.05 0.05 42 1026.0
20260906010503 20 105 11.3 29.0 0.00 0.05 0.05 40 1026.0
20260906010011 21 122 12.9 29.0 0.00 0.05 0.05 38 1026.1
20260906005503 21 144 17.7 29.0 0.00 0.05 0.05 38 1026.1
20260906005007 21 115 20.9 30.6 0.00 0.05 0.05 37 1025.9
20260906004517 21 187 11.3 30.6 0.00 0.05 0.05 38 1026.1
20260906004006 21 141 12.9 24.1 0.00 0.05 0.05 40 1026.0
20260906003508 21 195 9.7 24.1 0.00 0.05 0.05 39 1026.1
20260906003024 21 119 14.5 22.5 0.00 0.05 0.05 39 1026.1
20260906002511 20 162 11.3 27.4 0.00 0.05 0.05 40 1026.1
20260906002012 20 101 19.3 27.4 0.00 0.05 0.05 43 1026.0
20260906001539 20 110 16.1 35.4 0.00 0.05 0.05 50 1026.1
20260906001020 20 144 14.5 35.4 0.00 0.05 0.05 48 1026.0
20260906000515 19 113 14.5 30.6 0.00 0.05 0.05 50 1026.1
20260906000033 19 86 14.5 33.8 0.00 0.05 0.05 50 1026.0
20260905235515 19 114 17.7 33.8 0.00 0.05 0.05 48 1026.1
20260905235006 20 146 14.5 37.0 0.00 0.05 0.05 47 1026.0
20260905234511 20 141 14.5 37.0 0.00 0.05 0.05 49 1026.1
20260905234003 20 110 16.1 40.2 0.00 0.05 0.05 47 1026.0
20260905233508 20 109 25.7 40.2 0.00 0.05 0.05 44 1026.1
20260905233021 21 89 16.1 38.6 0.00 0.05 0.05 45 1025.8
20260905232507 22 116 25.7 37.0 0.03 0.05 0.05 39 1025.8
20260905232012 23 133 8.0 17.7 0.03 0.05 0.05 34 1025.6
20260905231532 23 132 6.4 17.7 0.03 0.05 0.05 35 1025.5
20260905231014 23 134 8.0 16.1 0.03 0.05 0.05 34 1025.5
20260905230515 23 136 9.7 16.1 0.03 0.05 0.05 34 1025.5
20260905230029 23 136 9.7 14.5 0.03 0.05 0.05 35 1025.6
20260905225514 23 118 8.0 12.9 0.03 0.05 0.05 35 1025.6